Presure
126 119 131 120 125 121 123 111 113 88 92 103 101 99 113 103 104 90 105 95 98 114 102 115 114 92 116 102 107 114 112 105 89 104 125 126 95 122 120 128 128 118 131
124 116 123 120 119 129 120 126 91 111 120 127 121 126 116 102 105 105 119 102 118 119 107 112 104 106 123 118 123 114 127 117 130 122 132 105 127 137 135 137 133 126 98
125 135 131 131 129 102 92 116 104 96 100 103 132 131 103 121 82 108 92 113 127 130 122 101 116 119 118 126 130 134 136 139 137 142 138 138 139 138 131 128 126 148 95
133 132 132 125 132 127 121 147 127 139 132 125 101 87 111 140 113 114 118 80 117 115 122 97 122 111 139 88 141 135 141 148 148 147 130 123 118 143 143 142 143 143 147
189 177 207 254 160 279 146 195 238 156 83 301 264 294 284 260 115 217 220 144 121 156 106 155 153 149 156 151 151 156 147 136 147 150 155 156 149 154 155 154 151 101 162
195 198 101 164 260 239 153 145 256 276 273 303 320 321 279 281 314 91 142 230 272 238 252 265 267 269 87 263 127 264 263 267 171 128 128 167 164 164 162 203 112 182 162
229 155 239 225 230 261 276 273 253 282 303 282 154 321 257 280 223 90 248 131 279 264 259 248 248 246 225 226 212 179 252 181 262 259 251 161 213 238 198 158 207 221 214
209 206 238 231 242 254 258 257 268 243 247 200 246 247 228 108 101 216 220 275 154 278 203 131 234 127 125 135 260 206 249 206 247 241 156 223 236 232 224 238 216 230 152
212 213 237 232 241 252 230 247 245 263 288 240 227 213 203 234 162 131 217 222 259 133 229 227 231 231 237 256 255 240 244 240 240 197 234 232 226 229 231 212 218 227 222
216 203 206 230 243 242 252 225 237 294 241 225 221 217 116 239 213 222 207 221 203 129 95 236 221 230 227 222 192 217 247 234 237 216 223 219 244 239 224 186 208 134 204
216 205 217 206 226 226 242 236 244 294 234 223 217 224 220 214 213 215 239 222 236 211 202 204 201 221 243 242 229 241 215 231 228 209 212 217 222 203 206 200 205 194 195
209 211 204 209 206 238 237 223 220 238 230 214 216 222 212 205 201 221 205 195 200 195 179 205 192 184 189 224 195 235 216 211 198 220 217 210 205 202 199 202 195 192 192
210 212 206 208 200 225 239 229 264 232 229 210 204 218 207 198 195 196 201 190 187 200 201 177 174 195 207 175 234 212 211 220 214 221 193 205 207 194 197 185 187 192 186
207 212 194 194 207 232 230 212 263 224 226 216 206 220 206 205 204 212 192 193 181 195 185 179 186 161 193 220 225 204 229 208 223 193 209 194 196 199 177 189 179 180 186
210 204 183 216 195 223 229 242 261 213 232 208 197 196 193 192 196 187 179 182 193 216 200 191 189 176 177 191 203 220 215 215 222 172 196 184 172 191 188 189 177 194 168
215 128 202 213 224 226 239 251 250 158 216 211 192 191 194 189 186 184 181 197 177 194 189 183 185 173 181 194 209 213 222 221 214 184 184 176 183 187 188 185 173 167 201
208 201 196 201 210 220 215 102 233 250 217 204 193 189 191 187 182 198 195 174 190 207 183 203 178 170 191 189 185 213 216 213 199 182 185 178 175 189 191 170 170 178 169
208 83 198 187 211 215 207 237 229 225 226 202 195 186 182 183 188 189 175 190 206 160 195 185 184 178 184 178 180 189 187 209 194 179 192 188 190 189 174 171 170 165 154
209 202 198 189 199 212 155 239 218 222 252 207 189 190 195 177 178 182 187 184 176 195 156 171 181 177 174 188 178 184 186 182 195 192 176 182 174 171 172 172 168 159 156
209 195 184 198 210 207 225 234 210 217 234 203 197 188 197 228 189 173 198 195 196 168 168 165 169 165 166 179 175 171 168 177 189 193 185 172 167 174 155 160 161 160 166
206 192 188 195 207 222 215 226 222 215 199 214 176 199 216 181 181 185 200 150 160 179 201 155 169 185 159 168 180 169 165 171 180 185 182 202 180 180 173 161 148 158 156
203 201 192 187 212 203 196 219 248 216 183 193 201 204 200 195 194 192 170 190 186 189 192 183 184 166 172 172 179 156 186 183 154 139 180 176 172 160 155 165 160 150 163
203 202 183 209 186 200 205 199 240 205 192 192 209 200 192 183 195 186 175 179 183 161 172 167 168 162 162 163 174 174 180 160 186 184 169 177 160 151 155 171 163 153 148
209 203 187 201 173 212 208 215 222 207 202 186 205 191 190 179 184 192 188 188 201 167 162 180 160 157 157 165 155 172 173 175 171 182 181 183 172 171 178 152 158 161 144
205 207 198 200 187 211 203 220 192 246 202 194 187 205 192 191 183 180 191 170 167 179 191 165 165 190 164 173 181 184 161 178 174 175 181 151 180 159 178 155 142 158 155
198 200 199 193 205 192 212 223 240 211 256 197 197 200 185 191 190 182 187 178 189 167 171 174 166 171 177 168 179 170 169 173 168 179 178 177 198 171 144 161 153 159 165
Wind_Speed
61 51 61 53 56 53 55 46 46 34 37 48 47 48 61 48 40 30 39 35 42 53 46 55 53 37 56 46 47 58 53 53 42 49 69 69 40 65 61 72 72 58 74
59 50 58 53 50 58 53 57 30 49 54 57 57 63 61 48 50 35 63 38 60 59 41 50 40 43 66 63 68 57 72 60 74 69 79 54 72 81 79 80 77 68 38
65 76 69 66 59 46 41 52 48 43 44 44 64 64 50 65 30 54 33 57 68 70 59 35 59 63 60 70 73 77 80 83 82 86 82 83 84 81 72 69 70 92 48
78 74 72 62 66 58 54 80 64 70 65 59 41 36 59 47 61 64 65 34 60 50 64 43 66 54 81 40 80 76 81 89 91 91 75 72 68 88 87 86 86 87 91
57 62 45 44 53 42 51 45 48 35 27 38 43 48 48 49 60 57 64 78 60 85 56 85 85 84 93 90 89 92 86 78 89 94 98 98 92 96 97 97 93 46 100
75 75 53 83 39 50 72 71 43 37 33 29 28 29 38 38 15 41 54 68 54 66 59 50 48 46 36 49 67 48 46 44 99 69 69 102 101 101 99 90 59 36 96
47 51 46 53 49 37 37 36 38 32 26 22 31 18 31 26 25 43 33 48 43 49 47 53 48 49 63 54 57 56 44 69 38 37 43 70 57 48 80 88 80 55 63
50 48 41 45 38 35 33 33 35 30 24 30 25 17 39 45 43 62 52 19 70 26 46 70 39 70 67 73 29 74 38 67 42 44 33 51 37 42 46 24 59 35 52
49 43 41 41 39 35 41 31 31 29 24 30 39 50 62 39 50 67 52 28 23 67 29 34 35 39 33 24 27 33 32 36 39 37 36 38 42 40 35 32 34 39 29
48 42 42 40 36 34 28 40 31 29 42 40 47 50 55 43 52 41 51 28 55 65 37 16 19 19 26 30 59 34 31 36 32 41 38 32 30 33 27 65 32 66 32
45 45 44 49 35 36 29 32 34 26 46 45 49 51 50 48 46 47 25 22 18 17 25 28 38 10 16 21 26 27 34 32 25 38 38 32 26 36 31 32 26 34 35
39 38 35 46 44 33 28 37 33 51 54 48 51 45 52 50 43 38 43 38 34 31 40 15 36 42 42 34 34 29 28 32 42 34 39 34 30 32 32 31 32 36 35
41 39 36 41 44 33 22 31 27 53 58 47 46 52 52 42 42 36 32 37 37 32 26 47 50 25 26 45 30 24 26 30 34 35 31 27 27 29 30 38 40 31 32
42 38 39 39 36 32 21 34 22 40 58 56 49 49 46 48 43 39 31 34 37 35 35 46 33 53 16 12 25 21 25 28 35 28 30 25 24 29 38 30 32 34 33
48 33 47 36 39 32 23 19 21 33 57 52 48 47 44 41 38 35 36 34 38 27 30 30 27 38 27 19 17 28 22 26 22 37 29 29 42 27 29 27 34 29 43
50 44 40 35 26 29 27 22 17 33 42 49 52 49 43 44 44 40 39 40 34 33 28 30 27 29 20 20 14 18 26 23 18 33 34 40 36 25 31 27 34 47 38
48 37 34 34 27 28 28 31 18 31 44 42 56 47 46 44 42 41 39 36 31 28 26 21 25 32 13 13 14 17 20 20 19 33 33 39 43 25 25 36 36 30 37
47 28 32 36 25 28 28 16 22 27 57 48 53 48 48 48 44 45 38 38 38 31 28 23 15 21 14 21 18 10 12 19 23 30 26 23 26 23 25 30 35 40 51
46 36 33 33 29 26 29 14 25 27 28 54 43 49 53 41 44 47 48 38 35 34 41 21 11 18 22 15 21 16 19 20 23 25 30 24 28 30 28 29 32 45 50
46 34 31 32 23 30 21 13 30 27 26 49 49 46 50 51 56 41 55 44 45 27 27 28 27 27 29 24 28 27 30 24 24 30 31 36 39 32 37 41 41 46 46
46 37 29 33 25 19 22 13 26 30 37 38 36 49 38 50 51 58 52 37 39 32 44 41 32 26 38 28 27 32 36 32 33 29 28 32 33 35 36 42 47 46 51
46 40 30 36 27 26 30 17 16 34 41 45 48 48 46 49 52 55 42 44 37 37 41 30 21 29 26 31 34 37 34 37 39 30 32 33 36 44 47 41 46 50 53
48 41 31 33 24 26 26 27 17 39 45 48 46 48 51 52 58 57 37 47 38 39 27 30 26 32 32 33 36 39 40 41 40 38 45 38 38 49 50 46 51 52 50
48 41 31 32 32 20 24 24 27 41 48 48 49 54 56 50 55 58 49 47 56 38 39 47 37 43 40 42 40 52 44 44 44 44 46 45 48 46 46 54 58 60 53
46 42 34 30 35 21 27 22 35 21 50 55 54 58 61 63 59 49 58 34 35 38 53 40 36 49 40 53 59 54 46 52 46 49 52 44 52 55 51 63 52 68 70
42 39 35 30 30 27 22 20 19 35 26 57 59 59 60 64 65 57 60 50 60 38 41 47 40 47 54 49 59 54 51 56 52 55 59 56 57 52 53 63 67 68 66
Wind_Direction
267 264 267 265 264 264 264 263 263 266 259 266 271 273 272 277 267 268 276 277 269 277 274 279 283 283 283 278 282 284 285 279 263 285 282 282 287 282 282 282 283 283 284
270 264 267 262 260 265 262 265 276 265 262 261 262 262 266 275 277 269 274 265 273 273 276 279 280 284 277 282 280 284 278 282 278 277 278 267 277 277 277 279 279 281 285
270 270 271 272 273 258 263 262 258 258 262 262 267 264 269 262 273 277 256 273 268 267 268 272 279 279 275 272 272 274 275 275 276 275 275 277 276 277 277 278 282 279 276
267 270 271 271 272 271 267 270 264 269 267 264 260 268 267 265 269 271 273 272 273 267 274 279 274 280 270 275 270 271 273 273 274 274 276 271 275 276 278 278 279 280 279
268 273 276 283 271 289 265 272 277 280 290 276 272 262 254 253 270 254 253 266 271 264 263 265 266 267 266 268 268 269 271 273 272 272 272 271 273 273 274 274 276 282 274
269 268 258 270 294 275 270 268 274 289 289 288 291 266 252 246 219 264 270 250 240 248 248 246 249 253 278 255 275 255 258 256 264 277 278 267 269 270 271 266 272 276 274
294 272 286 279 280 297 302 288 275 293 292 276 268 275 226 212 226 266 236 274 237 238 240 246 245 250 252 255 260 267 252 262 243 244 250 271 263 259 265 268 268 268 273
278 276 292 289 288 293 296 281 295 266 257 269 196 233 222 257 264 242 251 258 259 227 258 267 245 270 273 266 240 258 240 256 247 245 254 252 250 249 254 259 265 261 271
282 283 298 290 294 302 282 276 269 294 260 200 201 231 251 195 249 268 244 232 223 265 231 237 235 250 251 244 232 236 233 234 233 249 233 237 240 244 244 254 258 263 267
284 277 287 291 301 298 302 284 269 288 182 214 207 226 268 191 241 214 249 245 253 266 270 207 232 249 252 253 259 254 224 221 226 243 228 237 244 253 248 265 259 275 259
279 277 291 284 294 289 298 283 280 265 191 212 221 209 219 236 239 244 162 218 164 190 236 233 262 261 258 232 233 210 244 222 214 237 238 232 233 243 243 254 256 255 257
272 277 277 285 282 296 289 274 263 191 194 223 224 222 227 242 251 231 245 253 236 242 254 230 245 252 263 247 263 218 240 237 250 242 228 232 238 240 246 240 244 252 258
269 275 278 280 277 285 278 274 286 200 200 226 235 218 231 242 249 248 239 250 254 233 220 260 264 267 253 262 221 253 240 215 228 238 246 239 232 239 237 251 258 253 256
264 271 262 273 282 286 272 260 271 212 202 220 233 221 232 231 233 229 245 249 248 249 251 254 253 261 306 280 240 280 234 243 233 245 231 237 240 244 252 243 253 255 255
263 263 261 284 274 289 278 288 265 226 208 219 230 233 236 242 233 233 238 243 244 228 232 239 250 254 266 297 309 260 257 244 244 250 225 233 253 246 242 242 255 249 259
257 269 268 279 298 288 296 308 256 245 216 212 231 235 235 238 244 235 234 248 249 265 242 242 253 257 272 295 322 296 257 259 255 229 232 247 240 248 254 245 246 258 243
252 256 256 271 286 281 269 267 243 240 215 210 223 233 234 235 247 248 242 241 249 242 255 244 235 254 301 296 292 298 284 258 232 229 231 241 248 253 252 245 252 269 262
250 257 258 258 285 272 263 275 244 244 217 211 215 228 233 238 240 248 248 251 245 232 244 239 252 276 291 269 264 280 308 289 266 242 267 264 266 256 240 250 253 258 263
245 247 255 256 266 269 264 283 231 239 220 213 225 224 224 242 244 251 251 246 241 252 236 223 246 275 270 303 261 303 311 296 278 266 248 255 253 255 254 253 260 263 266
240 243 243 253 270 256 268 267 228 226 213 217 223 229 241 234 233 249 242 245 244 227 217 239 248 243 253 289 252 252 255 287 295 273 261 251 254 251 257 263 264 268 268
236 241 240 242 247 269 250 255 231 222 222 215 238 225 216 228 230 237 239 241 240 247 250 240 244 264 256 264 278 257 255 267 281 276 267 269 262 260 256 263 268 268 272
233 237 237 239 248 240 236 245 250 221 234 224 228 212 211 212 218 224 230 242 245 249 254 254 269 243 265 278 286 270 299 297 274 277 270 259 253 251 266 258 261 275 270
235 234 224 244 259 234 239 234 243 221 224 231 217 218 214 236 220 232 235 236 243 237 230 241 249 256 259 270 283 287 291 275 290 281 261 261 263 272 263 265 260 271 278
231 235 230 241 249 253 243 245 221 221 218 232 218 229 230 242 242 238 246 247 240 238 235 253 248 254 259 276 266 283 285 279 280 290 277 271 253 250 259 274 270 268 288
237 237 240 241 240 255 241 256 232 230 224 227 234 221 231 237 245 249 241 245 245 259 259 247 255 269 267 280 285 284 273 284 278 278 280 271 271 260 257 266 287 269 274
234 240 239 236 246 237 254 261 273 221 236 229 230 228 237 233 241 249 247 256 254 258 262 267 267 280 278 278 282 278 277 281 276 282 287 281 277 257 286 260 275 272 272